This demonstration page uses our WeatherBlox Daily Observations layout. Learn more.

Hourly Observations for December 29, 2019

Temp ( °F °C ) Dew Point ( °F °C ) Humidity (%) Winds ( mph kmh ) Pressure ( in mb ) Visibility ( mi km ) Precip ( " mm )
12:02 am 00:02 Cloudy with Light Rain 38 3.3 36 2.2 93 93 WSW 6 9 29.53 1000 10 16.0934 0.001 0.001
12:54 am 00:54 Cloudy 37 2.8 35 1.7 93 93 W 9 15 29.49 999 10 16.0934 0.001 0.001
1:54 am 01:54 Cloudy 35 1.7 33 0.6 93 93 WNW 10 17 29.49 999 10 16.0934 0 0
2:54 am 02:54 Cloudy 35 1.7 32 0 89 89 WNW 13 20 29.49 999 8 12.87472 0 0
3:22 am 03:22 Cloudy 35 1.7 33 0.6 93 93 W 12 19 29.54 1000 10 16.0934 0 0
3:54 am 03:54 Cloudy with Mist and Fog 35 1.7 33 0.6 93 93 W 10 17 29.51 999 6 9.65604 0 0
4:09 am 04:09 Cloudy with Mist and Fog 35 1.7 33 0.6 93 93 W 13 20 29.55 1001 5 8.0467 0 0
4:54 am 04:54 Cloudy with Light Snow 34 1.1 31 -0.6 89 89 W 12 19 29.52 1000 6 9.65604 0.001 0.001
5:16 am 05:16 Cloudy with Light Snow 34 1.1 31 -0.6 89 89 W 12 19 29.55 1001 7 11.26538 0.001 0.001
5:18 am 05:18 Cloudy with Light Snow 34 1.1 31 -0.6 89 89 WSW 14 22 29.56 1001 6 9.65604 0.001 0.001
5:23 am 05:23 Cloudy with Light Snow 33 0.6 30 -1.1 89 89 W 16 26 29.56 1001 5 8.0467 0.001 0.001
5:31 am 05:31 Cloudy with Light Snow 33 0.6 30 -1.1 89 89 W 13 20 29.56 1001 8 12.87472 0.001 0.001
5:43 am 05:43 Cloudy 33 0.6 30 -1.1 89 89 W 14 22 29.56 1001 10 16.0934 0.001 0.001
5:54 am 05:54 Cloudy 33 0.6 29 -1.7 85 85 W 13 20 29.53 1000 10 16.0934 0.001 0.001
6:02 am 06:02 Cloudy 33 0.6 29 -1.7 85 85 W 14 22 29.57 1001 10 16.0934 0 0
6:49 am 06:49 Cloudy 32 0 27 -3 80 80 W 17 28 29.58 1002 10 16.0934 0 0
6:54 am 06:54 Cloudy 32 0 27 -2.8 82 82 W 18 30 29.54 1000 10 16.0934 0 0
7:54 am 07:54 Cloudy 31 -0.6 25 -3.9 79 79 W 14 22 29.56 1001 10 16.0934 0 0
8:01 am 08:01 Cloudy 31 -0.6 25 -3.9 79 79 W 21 33 29.6 1002 10 16.0934 0 0
8:16 am 08:16 Cloudy 31 -0.6 25 -3.9 79 79 W 13 20 29.6 1002 10 16.0934 0 0
8:54 am 08:54 Cloudy 30 -1.1 25 -3.9 82 82 W 15 24 29.57 1001 10 16.0934 0 0
9:14 am 09:14 Cloudy 31 -0.6 24 -4.4 76 76 W 17 28 29.6 1002 10 16.0934 0 0
9:24 am 09:24 Cloudy 30 -1.1 24 -4.4 79 79 W 16 26 29.6 1003 10 16.0934 0 0
9:54 am 09:54 Cloudy 31 -0.6 24 -4.4 76 76 W 15 24 29.57 1002 10 16.0934 0 0
10:54 am 10:54 Cloudy 31 -0.6 25 -3.9 79 79 W 14 22 29.57 1001 10 16.0934 0 0
11:54 am 11:54 Cloudy 31 -0.6 24 -4.4 76 76 WNW 17 28 29.56 1001 10 16.0934 0 0
12:54 pm 12:54 Cloudy 31 -0.6 23 -5 72 72 WNW 13 20 29.54 1001 10 16.0934 0 0
1:05 pm 13:05 Cloudy 31 -0.6 23 -5 72 72 WNW 16 26 29.58 1002 10 16.0934 0 0
1:54 pm 13:54 Cloudy 31 -0.6 22 -5.6 69 69 WNW 16 26 29.53 1000 10 16.0934 0 0
2:54 pm 14:54 Cloudy 31 -0.6 23 -5 72 72 WNW 12 19 29.53 1000 7 11.26538 0.001 0.001
3:54 pm 15:54 Cloudy 31 -0.6 23 -5 72 72 WNW 14 22 29.55 1001 8 12.87472 0 0
4:34 pm 16:34 Cloudy with Light Snow 30 -1.1 24 -4.4 79 79 WNW 18 30 29.6 1003 2.5 4.02335 0.001 0.001
4:45 pm 16:45 Cloudy with Light Snow 30 -1.1 24 -4.4 79 79 WNW 15 24 29.6 1003 2.5 4.02335 0.001 0.001
4:54 pm 16:54 Cloudy with Light Snow 30 -1.1 24 -4.4 79 79 WNW 14 22 29.57 1001 2 3.21868 0.001 0.001
4:58 pm 16:58 Cloudy with Light Snow 29 -1.7 24 -4.4 82 82 WNW 15 24 29.62 1003 1.5 2.41401 0.001 0.001
5:14 pm 17:14 Cloudy with Light Snow 29 -1.7 24 -4.4 82 82 WNW 15 24 29.62 1003 2 3.21868 0.001 0.001
5:20 pm 17:20 Cloudy with Light Snow 29 -1.7 24 -4.4 82 82 WNW 16 26 29.62 1003 3 4.82802 0.001 0.001
5:54 pm 17:54 Windy with Snow Likely 28 -2.2 23 -5 81 81 NW 23 37 29.58 1002 4 6.43736 0.001 0.001
6:01 pm 18:01 Cloudy with Light Snow 28 -2.2 23 -5 81 81 WNW 16 26 29.63 1003 5 8.0467 0.001 0.001
6:54 pm 18:54 Windy with Snow Likely 28 -2.2 22 -5.6 78 78 WNW 20 31 29.6 1002 7 11.26538 0.001 0.001
7:18 pm 19:18 Cloudy 28 -2.2 21 -6.1 75 75 NW 21 33 29.64 1004 10 16.0934 0.001 0.001
7:27 pm 19:27 Cloudy 28 -2.2 21 -6.1 75 75 WNW 22 35 29.64 1004 10 16.0934 0.001 0.001
7:54 pm 19:54 Cloudy with Light Snow 28 -2.2 21 -6.1 75 75 NW 17 28 29.61 1003 6 9.65604 0.001 0.001
8:14 pm 20:14 Windy with Snow Likely 28 -2.2 20 -6.7 72 72 WNW 24 39 29.64 1004 9 14.48406 0.001 0.001
8:26 pm 20:26 Windy with Snow Likely 27 -2.8 19 -7.2 72 72 NW 25 41 29.65 1004 8 12.87472 0.001 0.001
8:44 pm 20:44 Cloudy 28 -2.2 19 -7.2 69 69 NW 24 39 29.65 1004 10 16.0934 0.001 0.001
8:54 pm 20:54 Cloudy 28 -2.2 19 -7.2 69 69 NW 21 33 29.61 1003 10 16.0934 0.001 0.001
9:13 pm 21:13 Cloudy 28 -2.2 18 -7.8 66 66 NW 26 43 29.66 1004 10 16.0934 0 0
9:22 pm 21:22 Cloudy 28 -2.2 18 -7.8 66 66 NW 23 37 29.66 1004 10 16.0934 0 0
9:54 pm 21:54 Windy with Snow Likely 27 -2.8 18 -7.8 69 69 NW 22 35 29.63 1003 8 12.87472 0.001 0.001
10:08 pm 22:08 Cloudy 27 -2.8 18 -7.8 69 69 WNW 24 39 29.67 1005 9 14.48406 0.001 0.001
10:15 pm 22:15 Cloudy 27 -2.8 18 -7.8 69 69 NW 20 31 29.67 1005 10 16.0934 0.001 0.001
10:41 pm 22:41 Cloudy 27 -2.8 17 -8.3 66 66 NW 18 30 29.67 1005 10 16.0934 0.001 0.001
10:54 pm 22:54 Windy with Snow Likely 27 -2.8 18 -7.8 69 69 NW 20 31 29.64 1004 10 16.0934 0.001 0.001
11:45 pm 23:45 Cloudy 27 -2.8 18 -7.8 69 69 NW 23 37 29.69 1006 10 16.0934 0.001 0.001
11:54 pm 23:54 Cloudy 27 -2.8 17 -8.3 66 66 NW 25 41 29.66 1004 10 16.0934 0.001 0.001

Powered by AerisWeather